Jackson, WY

12:51 PM MST on December 05, 2019 (GMT -0700)
Jackson Hole

Weather History for KJAC - October, 2019

Change the Weather History Date:

Saturday, October 26, 2019

  Actual Average Record
Temperature  
Mean Temperature 35 °F -  
Max Temperature 46 °F 51 °F 68 °F (1992)
Min Temperature 24 °F 21 °F 4 °F (1970)
Degree Days  
Heating Degree Days 30    
Moisture  
Dew Point 24 °F    
Average Humidity 69    
Maximum Humidity 93    
Minimum Humidity 40    
Precipitation  
Precipitation 0.01 in - - ()
Sea Level Pressure  
Sea Level Pressure 29.87 in    
Wind  
Wind Speed 14 mph ()    
Max Wind Speed 25 mph    
Max Gust Speed 33 mph    
Visibility 6.8 miles    
Events Snow    
Averages and records for this station are not official NWS values.
T = Trace of Precipitation, MM = Missing Value Source: Averaged Metar Reports

Daily Weather History Graph

Daily Weather History Graph

Search for Another Location

Airport or City:

Astronomy

Oct. 26, 2019 Rise Set
Actual Time 7:50 AM MDT 6:22 PM MDT
Civil Twilight 7:21 AM MDT 6:51 PM MDT
Nautical Twilight 6:47 AM MDT 7:25 PM MDT
Astronomical Twilight 6:14 AM MDT 7:58 PM MDT
Moon 5:44 AM MDT (10/26) 6:04 PM MDT (10/26)
Length of Visible Light 11h 30m
Length of Day
10h 31m
Waning Crescent, 3% of the Moon is Illuminated
Oct 26
Waning Crescent
Oct 27
New
Nov 4
First Quarter
Nov 12
Full
Nov 19
Last Quarter

Hourly Weather History & Observations

Time (MDT) Temp. Windchill Dew Point Humidity Pressure Visibility Wind Dir Wind Speed Gust Speed Precip Events Conditions
12:56 AM 41.0 °F 34.3 °F 27.0 °F 57% 29.99 in 10.0 mi SW 11.5 mph - N/A   Clear
2:56 AM 42.1 °F 33.6 °F 26.1 °F 53% 29.89 in 10.0 mi South 18.4 mph - N/A   Mostly Cloudy
3:56 AM 39.9 °F 32.5 °F 25.0 °F 55% 29.87 in 10.0 mi SW 12.7 mph - N/A   Clear
4:56 AM 39.9 °F 33.9 °F 26.1 °F 58% 29.84 in 10.0 mi WSW 9.2 mph - N/A   Overcast
5:56 AM 42.1 °F 39.2 °F 26.1 °F 53% 29.81 in 10.0 mi Variable 4.6 mph - N/A   Overcast
6:56 AM 46.0 °F 39.6 °F 26.1 °F 46% 29.78 in 10.0 mi South 15.0 mph - N/A   Overcast
7:56 AM 46.0 °F 38.5 °F 23.0 °F 40% 29.77 in 10.0 mi South 19.6 mph 27.6 mph N/A   Overcast
8:56 AM 45.0 °F 36.4 °F 24.1 °F 44% 29.77 in 10.0 mi SSW 23.0 mph 28.8 mph N/A   Overcast
9:56 AM 45.0 °F 38.2 °F 25.0 °F 46% 29.80 in 10.0 mi WSW 15.0 mph 27.6 mph N/A   Overcast
10:56 AM 44.1 °F 35.4 °F 26.1 °F 49% 29.82 in 10.0 mi WSW 21.9 mph 33.4 mph N/A   Overcast
11:56 AM 37.9 °F 28.9 °F 26.1 °F 62% 29.86 in 5.0 mi WNW 16.1 mph 23.0 mph N/A   Haze
12:56 PM 36.0 °F 26.3 °F 24.1 °F 62% 29.86 in 10.0 mi North 16.1 mph 20.7 mph 0.00 in   Overcast
1:15 PM 33.8 °F 22.5 °F 24.8 °F 70% 29.85 in 7.0 mi North 19.6 mph - 0.00 in Snow Light Snow
1:25 PM 32.0 °F 20.1 °F 26.6 °F 80% 29.85 in 2.5 mi NNE 19.6 mph 24.2 mph 0.00 in Snow Light Snow
1:30 PM 32.0 °F 20.5 °F 26.6 °F 80% 29.85 in 3.0 mi NNE 18.4 mph 24.2 mph 0.00 in Snow Light Snow
1:40 PM 32.0 °F 21.2 °F 26.6 °F 80% 29.85 in 1.8 mi NNE 16.1 mph - 0.00 in Snow Light Snow
1:49 PM 30.2 °F 18.1 °F 26.6 °F 86% 29.85 in 1.2 mi North 18.4 mph 24.2 mph 0.00 in Snow Light Snow
1:56 PM 30.0 °F 17.9 °F 27.0 °F 88% 29.89 in 0.8 mi NNE 18.4 mph 25.3 mph 0.00 in Snow Light Snow
2:13 PM 30.2 °F 20.2 °F 28.4 °F 93% 29.85 in 0.8 mi NNE 12.7 mph - 0.00 in Snow Light Snow
2:24 PM 30.2 °F 19.8 °F 26.6 °F 86% 29.85 in 1.2 mi NNE 13.8 mph - 0.01 in Snow Light Snow
2:35 PM 30.2 °F 20.8 °F 28.4 °F 93% 29.85 in 1.8 mi NNE 11.5 mph - 0.01 in Snow Light Snow
2:39 PM 30.2 °F 20.8 °F 28.4 °F 93% 29.85 in 2.0 mi North 11.5 mph - 0.01 in Snow Light Snow
2:51 PM 30.2 °F 21.9 °F 28.4 °F 93% 29.85 in 1.2 mi NNE 9.2 mph - 0.01 in Snow Light Snow
2:56 PM 30.9 °F 22.8 °F 28.0 °F 89% 29.88 in 1.0 mi NNE 9.2 mph - 0.01 in Snow Light Snow
3:09 PM 30.2 °F 23.4 °F 26.6 °F 86% 29.85 in 1.5 mi NNE 6.9 mph - 0.00 in Snow Light Snow
3:28 PM 30.2 °F 21.9 °F 26.6 °F 86% 29.85 in 3.0 mi NNE 9.2 mph - 0.00 in Snow Light Snow
3:56 PM 32.0 °F 25.6 °F 28.0 °F 85% 29.88 in 9.0 mi NNE 6.9 mph - 0.00 in Snow Light Snow
4:37 PM 30.2 °F 18.9 °F 24.8 °F 80% 29.85 in 9.0 mi North 16.1 mph - 0.00 in Snow Light Snow
4:56 PM 30.9 °F 18.4 °F 23.0 °F 72% 29.89 in 10.0 mi North 20.7 mph 25.3 mph 0.00 in Snow Light Snow
5:56 PM 30.0 °F 18.3 °F 19.9 °F 66% 29.90 in 10.0 mi North 17.3 mph - 0.00 in   Overcast
6:56 PM 28.9 °F 16.1 °F 19.0 °F 67% 29.90 in 10.0 mi NNE 19.6 mph 24.2 mph 0.00 in   Overcast
7:56 PM 27.0 °F 16.1 °F 17.1 °F 66% 29.93 in 10.0 mi NNE 12.7 mph 20.7 mph N/A   Overcast
8:56 PM 26.1 °F 10.7 °F 16.0 °F 66% 29.94 in 9.0 mi North 25.3 mph 31.1 mph 0.00 in Snow Light Snow
9:56 PM 26.1 °F 11.3 °F 15.1 °F 63% 29.96 in 10.0 mi NNE 23.0 mph 26.5 mph 0.00 in   Overcast
10:56 PM 25.0 °F 11.7 °F 12.0 °F 58% 30.00 in 10.0 mi NNE 17.3 mph - 0.00 in   Overcast
11:37 PM 24.8 °F 11.1 °F 12.2 °F 59% 29.95 in 10.0 mi NE 18.4 mph - N/A   Overcast
11:56 PM 24.1 °F 11.0 °F 12.0 °F 60% 30.05 in 9.0 mi NE 16.1 mph - 0.00 in Snow Light Snow